Regional Weather Roundup
Issued by NWS

Home | Current Version | Previous Version | Text Only | Print | Product List | Glossary Off
Versions: 1 2 3 4 5 6 7 8 9 10 11 12 13 14 15 16 17 18 19 20 21 22 23 24 25 26 27 28 29 30 31 32 33 34 35 36 37 38 39 40 41 42 43 44 45 46 47 48 49 50

000
ASUS43 KMPX 261910
RWRMN
WEATHER ROUNDUP FOR MINNESOTA
NATIONAL WEATHER SERVICE TWIN CITIES/CHANHASSEN MN
200 PM CDT TUE JUL 26 2016


NOTE: "FAIR" INDICATES FEW OR NO CLOUDS BELOW 12,000 FEET WITH NO
SIGNIFICANT WEATHER AND/OR OBSTRUCTIONS TO VISIBILITY. N/A MEANS
CURRENT SKY AND/OR WEATHER CONDITIONS ARE NOT AVAILABLE.

MNZ060>063-068>070-262000-
   Twin Cities Metro

CITY           SKY/WX    TMP DP  RH WIND       PRES   REMARKS
TWIN CITIES    MOSUNNY   89  63  41 W15G23    30.00F HX  90
ST PAUL        SUNNY     88  64  44 SW16G24   30.00F
CRYSTAL        SUNNY     88  62  41 SW15G22   29.98F
BLAINE         MOSUNNY   90  63  40 SW14G23   29.99F HX  90
LAKEVILLE      SUNNY     82  64  54 SW6       30.03F
EDEN PRAIRIE   SUNNY     89  66  46 SW12      30.00F HX  91
LAKEVILLE      SUNNY     82  64  54 SW6       30.03F
SOUTH ST PAUL  SUNNY     88  61  40 SW12G20   30.00F
LAKE ELMO      FAIR      88  64  45 SW9       30.01F
$$
MNZ001>005-007-008-013>017-022>024-027-028-262000-
   Northwest Minnesota

CITY           SKY/WX    TMP DP  RH WIND       PRES   REMARKS
BEMIDJI        CLOUDY    81  70  69 S5        29.97F
HALLOCK        MOSUNNY   82  70  65 N5        29.97S
ROSEAU         SUNNY     84  70  61 W5        29.98S
WARROAD        MOSUNNY   77  68  73 E6        30.00S
THIEF RVR FALL SUNNY     83  63  50 NE6       29.99R
CROOKSTON      SUNNY     84  63  48 NE7       29.96F
FOSSTON        MOSUNNY   84  70  61 CALM      29.98S
DETROIT LAKES  MOSUNNY   77  64  65 CALM      29.99S
MOORHEAD       MOSUNNY   79  70  73 NE3       29.94F
PARK RAPIDS    CLOUDY    79  66  64 SW3       29.98F
MAHNOMEN       CLOUDY    76  67  71 NW3       29.97S
$$
MNZ006-009>011-018-025>026-262000-
   North Central Minnesota

CITY           SKY/WX    TMP DP  RH WIND       PRES   REMARKS
BAUDETTE       SUNNY     82  63  52 N7        29.98S
FLAG ISLAND    MOSUNNY   77  52  41 CALM      29.99S
INTL FALLS     MOSUNNY   81  64  56 NW3       29.96S
WASKISH        SUNNY     84  64  51 W5        29.96F
BIG FORK       MOSUNNY   84  64  51 N5        29.97S
LONGVILLE      LGT RAIN  72  68  88 SW6       29.99F
GRAND RAPIDS   CLOUDY    77  66  68 W6        30.01R
CRANE LAKE     MOSUNNY   79  64  61 NE1       29.97S
ORR            CLOUDY    81  64  57 CALM      29.94F
COOK           CLOUDY    79  68  69 CALM      29.97S
WALKER         FAIR      74  66  75 W5        30.00R
$$
MNZ012-019>021-037-262000-
   Northeast Minnesota

CITY           SKY/WX    TMP DP  RH WIND       PRES   REMARKS
DULUTH         CLOUDY    81  66  60 W16       29.98R
ELY            CLOUDY    79  64  61 N5        29.96S
HIBBING        MOSUNNY   80  68  66 VRB5      29.96S
EVELETH        PTSUNNY   83  68  59 S3        29.97S
DULUTH HARBOR  CLOUDY    82  70  65 SW15      29.94S
TWO HARBORS    PTSUNNY   84  73  70 SW13G18   29.93S HX  91
SILVER BAY     CLOUDY    84  68  58 SW3       29.92R
GRAND MARAIS     N/A     68  61  78 SW6       29.91S
G MARAIS ARPRT CLOUDY    79  63  57 W7        29.97S
$$
MNZ029>031-032-039>041-046>048-054>057-064-262000-
   West Central Minnesota

CITY           SKY/WX    TMP DP  RH WIND       PRES   REMARKS
FERGUS FALLS   CLOUDY    81  68  65 MISG      29.97S
WHEATON        CLOUDY    84  70  61 SW3       29.97S
MORRIS         CLOUDY    88  70  55 SW10      29.97R HX  92
ALEXANDRIA     CLOUDY    86  70  58 SW10      30.00F HX  90
ELBOW LAKE     FAIR      84  70  63 SW7       29.98S
WADENA         CLOUDY    77  68  73 W5        29.98F
GLENWOOD       CLOUDY    86  70  58 W13       30.00S HX  90
APPLETON       CLOUDY    88  70  55 SW7       29.97S HX  92
BENSON         MOSUNNY   86  68  54 W12       29.99S
ORTONVILLE     CLOUDY    84  70  61 CALM      29.97S
MADISON        CLOUDY   N/A N/A N/A W8          N/A
WILLMAR        FAIR      84  70  61 SW10      30.01S
$$
MNZ033>034-036-042>043-049>051-058-059-262000-
   Central Minnesota

CITY           SKY/WX    TMP DP  RH WIND       PRES   REMARKS
ST CLOUD       MOSUNNY   86  71  60 SW14      29.97F HX  91
SAUK CENTRE    FAIR      85  71  63 SW10      29.99S
PAYNESVILLE    SUNNY     83  67  57 S10       30.00F
AITKIN         CLOUDY    81  64  57 SW5       29.99R
PINE RIVER     CLOUDY    75  68  78 CALM      30.01F
BRAINERD       CLOUDY    80  67  64 CALM      29.99F
STAPLES        MOSUNNY   81  64  57 W3        29.98F
LONG PRAIRIE   FAIR      82  70  65 SW8       30.00F
LITTLE FALLS   CLOUDY    82  66  57 W6        29.98F
LITCHFIELD     MOSUNNY   86  66  51 SW6       30.00F
BUFFALO        SUNNY     85  64  49 SW9G16    30.01F
MAPLE LAKE     SUNNY     86  70  58 SW7       30.00F HX  91
HUTCHINSON     SUNNY     86  68  54 S9        30.02F
$$
MNZ037-044-045-052-053-262000-
   East Central Minnesota

CITY           SKY/WX    TMP DP  RH WIND       PRES   REMARKS
PRINCETON      SUNNY     88  70  55 SW8       29.98F HX  92
MORA           PTSUNNY   82  68  61 W8        29.99F
CAMBRIDGE      SUNNY     90  70  51 SW9       29.96F HX  95
RUSH CITY      MOSUNNY   87  69  55 SW7       29.97F HX  90
MOOSE LAKE     CLOUDY    81  64  57 SW9G17    29.96F
HINCKLEY       FAIR      82  70  65 W8        29.99R
CLOQUET        CLOUDY    82  64  54 SW7       29.97F
MCGREGOR       CLOUDY    79  64  61 W8        29.99S
$$
MNZ071>073-080-081-089-090-097-098-262000-
   Southwest Minnesota

CITY           SKY/WX    TMP DP  RH WIND       PRES   REMARKS
MONTEVIDEO     MOSUNNY   88  72  58 SW9       30.01S HX  94
GRANITE FALLS  SUNNY     87  69  54 S9        30.02S HX  91
CANBY          CLOUDY    89  63  42 SW7       30.01S
MARSHALL       SUNNY     87  64  46 SW6       30.02F
REDWOOD FALLS  SUNNY     86  64  47 S10       30.01F
OLIVIA         SUNNY     82  64  54 S8        30.01F
PIPESTONE      SUNNY     84  63  48 SW9       30.05F
WINDOM         SUNNY     84  63  48 S9        30.05F
WORTHINGTON    SUNNY     83  66  56 SW9       30.06F
JACKSON        SUNNY     84  61  45 S8        30.07F
TRACY          SUNNY     86  67  52 SW7       30.04S
SLAYTON        SUNNY     85  64  49 S10       30.06F
$$
MNZ065>067-074>077-082>085-091>093-262000-
   South Central Minnesota

CITY           SKY/WX    TMP DP  RH WIND       PRES   REMARKS
MANKATO        SUNNY     84  66  54 SW6       30.05F
NEW ULM        SUNNY     84  64  51 S9        30.03F
ST JAMES       SUNNY     81  61  50 CALM      30.05F
FAIRMONT       SUNNY     82  61  47 S8        30.06S
GLENCOE        SUNNY     87  70  56 SW6       30.01F HX  92
FARIBAULT      SUNNY     86  68  54 SW6       30.06F
OWATONNA       SUNNY     84  66  54 SW5       30.07F
WASECA         SUNNY     82  66  57 SW7       30.08F
ALBERT LEA     SUNNY     84  66  54 SW6       30.07F
$$
MNZ078>079-086>088-094>096-262000-
   Southeast Minnesota

CITY           SKY/WX    TMP DP  RH WIND       PRES   REMARKS
ROCHESTER      SUNNY     84  69  60 SW3       30.08F
RED WING       SUNNY     90  63  40 SW10      30.01F HX  90
STANTON        MOSUNNY   86  66  51 SW10      30.03F
DODGE CENTER   SUNNY     84  68  58 SW6       30.08S
WINONA         SUNNY     86  66  51 SW3       30.04F
AUSTIN         SUNNY     82  66  57 CALM      30.07F
PRESTON        PTSUNNY   83  66  56 NW5       30.09S
$$
ABBREVIATIONS USED IN REMARKS
   TC - TEMPERATURES IN CELSIUS
  WCI - WIND CHILL INDEX
   HX - HEAT INDEX
  VSB - VISIBILITY
$$




USA.gov is the U.S. government's official web portal to all federal, state and local government web resources and services.